Tracking 25198 objects as of 16-Jan-2022
HD Live streaming from Space Station
objects crossing your sky now

THOR ABLESTAR DEB

Track THOR ABLESTAR DEB now!
10-day predictions


NORAD ID: 21986
Int'l Code: 1961-015MM
Perigee: 816.8 km
Apogee: 950.9 km
Inclination: 66.9 °
Period: 102.5 minutes
Semi major axis: 7254 km
RCS: 0.0015 m2 (small)
Launch date: June 29, 1961
Source: United States (US)
Launch site: AIR FORCE EASTERN TEST RANGE (AFETR)

Note: This is SATELLITE DEBRIS
aabbcc
Your satellite tracking list
Your tracking list is empty




NASA's NSSDC Master Catalog

Two Line Element Set (TLE):
1 21986U 61015MM  22015.87598376  .00000012  00000-0  54230-4 0  9993
2 21986  66.8750 231.3656 0092401 133.9326 241.0177 14.04944111526160
Source of the keplerian elements: AFSPC